Chicago Midway, IL

7:35 PM CST on December 13, 2019 (GMT -0600)
Chicago-Midway

Weather History for KMDW - October, 2019

Change the Weather History Date:

Wednesday, October 16, 2019

  Actual Average Record
Temperature  
Mean Temperature 48 °F 54 °F  
Max Temperature 53 °F 63 °F 87 °F (1963)
Min Temperature 43 °F 46 °F 30 °F (1944)
Degree Days  
Heating Degree Days 17 11  
Month to date heating degree days 136 142  
Since 1 July heating degree days 137 224  
Cooling Degree Days 0 0  
Month to date cooling degree days 21 13  
Year to date cooling degree days 1131 1042  
Moisture  
Dew Point 36 °F    
Average Humidity 62    
Maximum Humidity 71    
Minimum Humidity 50    
Precipitation  
Precipitation 0.00 in 0.10 in 0.81 in (2006)
Month to date precipitation 1.44 1.61  
Year to date precipitation 39.26 31.47  
Sea Level Pressure  
Sea Level Pressure 29.91 in    
Wind  
Wind Speed 13 mph (WNW)    
Max Wind Speed 26 mph    
Max Gust Speed 35 mph    
Visibility 10 miles    
Events      
T = Trace of Precipitation, MM = Missing Value Source: NWS Daily Summary

Daily Weather History Graph

Daily Weather History Graph

Search for Another Location

Airport or City:

Astronomy

Oct. 16, 2019 Rise Set
Actual Time 7:04 AM CDT 6:08 PM CDT
Civil Twilight 6:36 AM CDT 6:36 PM CDT
Nautical Twilight 6:03 AM CDT 7:08 PM CDT
Astronomical Twilight 5:31 AM CDT 7:40 PM CDT
Moon 7:59 PM CDT (10/16) 9:36 AM CDT (10/16)
Length of Visible Light 12h 00m
Length of Day
11h 04m
Waning Gibbous, 92% of the Moon is Illuminated
Oct 16
Waning Gibbous
Oct 21
Last Quarter
Oct 27
New
Nov 4
First Quarter
Nov 12
Full

Hourly Weather History & Observations

Time (CDT) Temp. Windchill Dew Point Humidity Pressure Visibility Wind Dir Wind Speed Gust Speed Precip Events Conditions
12:53 AM 48.0 °F - 37.0 °F 66% 29.81 in 10.0 mi West 11.5 mph 25.3 mph N/A   Partly Cloudy
1:53 AM 46.0 °F 40.2 °F 36.0 °F 68% 29.81 in 10.0 mi WNW 12.7 mph 24.2 mph N/A   Partly Cloudy
2:53 AM 46.9 °F - 36.0 °F 66% 29.80 in 10.0 mi West 13.8 mph 23.0 mph N/A   Overcast
3:53 AM 46.9 °F - 36.0 °F 66% 29.80 in 10.0 mi WNW 17.3 mph 26.5 mph N/A   Overcast
4:37 AM 46.9 °F - 36.0 °F 66% 29.81 in 10.0 mi WNW 24.2 mph 33.4 mph N/A   Overcast
4:53 AM 46.9 °F - 36.0 °F 66% 29.82 in 10.0 mi NW 19.6 mph 33.4 mph N/A   Overcast
5:53 AM 46.0 °F 39.9 °F 36.0 °F 68% 29.82 in 10.0 mi NW 13.8 mph 25.3 mph N/A   Overcast
6:53 AM 46.0 °F 39.6 °F 37.0 °F 71% 29.84 in 10.0 mi NW 15.0 mph 25.3 mph N/A   Overcast
7:53 AM 46.0 °F 39.9 °F 37.0 °F 71% 29.86 in 10.0 mi NW 13.8 mph - N/A   Overcast
8:53 AM 46.9 °F - 36.0 °F 66% 29.89 in 10.0 mi NW 20.7 mph 34.5 mph N/A   Overcast
9:53 AM 48.9 °F - 37.0 °F 64% 29.90 in 10.0 mi NW 18.4 mph 29.9 mph N/A   Mostly Cloudy
10:53 AM 50.0 °F - 36.0 °F 59% 29.92 in 10.0 mi NW 18.4 mph 32.2 mph N/A   Overcast
11:53 AM 51.1 °F - 36.0 °F 56% 29.94 in 10.0 mi NW 16.1 mph 33.4 mph N/A   Overcast
12:53 PM 51.1 °F - 36.0 °F 56% 29.94 in 10.0 mi NW 19.6 mph 27.6 mph N/A   Mostly Cloudy
1:53 PM 51.1 °F - 36.0 °F 56% 29.95 in 10.0 mi NW 15.0 mph 24.2 mph N/A   Overcast
2:53 PM 52.0 °F - 35.1 °F 53% 29.96 in 10.0 mi NNW 16.1 mph 26.5 mph N/A   Overcast
3:53 PM 52.0 °F - 34.0 °F 50% 29.96 in 10.0 mi WNW 16.1 mph 25.3 mph N/A   Overcast
4:53 PM 52.0 °F - 35.1 °F 53% 29.98 in 10.0 mi WNW 15.0 mph - N/A   Mostly Cloudy
5:53 PM 51.1 °F - 34.0 °F 52% 29.99 in 10.0 mi WNW 9.2 mph 19.6 mph N/A   Mostly Cloudy
6:53 PM 48.9 °F - 34.0 °F 56% 29.99 in 10.0 mi WNW 8.1 mph - N/A   Scattered Clouds
7:53 PM 46.9 °F - 35.1 °F 63% 30.01 in 10.0 mi West 8.1 mph - N/A   Clear
8:53 PM 46.0 °F 42.5 °F 35.1 °F 66% 30.02 in 10.0 mi WNW 6.9 mph - N/A   Clear
9:53 PM 45.0 °F 41.8 °F 35.1 °F 68% 30.03 in 10.0 mi West 5.8 mph - N/A   Mostly Cloudy
10:53 PM 44.1 °F 40.1 °F 35.1 °F 71% 30.02 in 10.0 mi WNW 6.9 mph - N/A   Scattered Clouds
11:53 PM 44.1 °F 40.1 °F 35.1 °F 71% 30.02 in 10.0 mi WNW 6.9 mph - N/A   Mostly Cloudy